This demonstration page uses our WeatherBlox Daily Observations layout. Learn more.

Hourly Observations for February 6, 2020

Temp ( °F °C ) Dew Point ( °F °C ) Humidity (%) Winds ( mph kmh ) Pressure ( in mb ) Visibility ( mi km ) Precip ( " mm )
12:15 am 00:15 Cloudy 36 2 36 2 100 100 E 3 6 29.92 1013 2.5 4.02335 0 0
12:35 am 00:35 Cloudy 36 2 36 2 100 100 Calm 29.92 1013 3 4.82802 0 0
12:55 am 00:55 Cloudy 36 2 36 2 100 100 ESE 5 7 29.89 1012 2 3.21868 0.02 0.508
1:15 am 01:15 Cloudy 36 2 36 2 100 100 W 3 6 29.91 1013 2 3.21868 0 0
1:35 am 01:35 Cloudy 36 2 36 2 100 100 Calm 29.9 1012 1.75 2.816345 0.02 0.508
1:55 am 01:55 Cloudy 36 2 36 2 100 100 Calm 29.88 1012 2.5 4.02335 0.04 1.016
2:15 am 02:15 Cloudy 36 2 36 2 100 100 Calm 29.87 1011 2 3.21868 0.01 0.254
2:35 am 02:35 Cloudy 34 1 34 1 100 100 Calm 29.86 1011 2.5 4.02335 0.01 0.254
2:55 am 02:55 Cloudy 36 2 36 2 100 100 S 6 9 29.83 1010 3 4.82802 0.01 0.254
3:15 am 03:15 Cloudy 36 2 36 2 100 100 SSE 13 20 29.78 1008 4 6.43736 0 0
3:35 am 03:35 Cloudy 36 2 36 2 100 100 SSE 8 13 29.76 1008 5 8.0467 0 0
3:55 am 03:55 Cloudy 36 2 36 2 100 100 SSE 9 15 29.73 1007 7 11.26538 0 0
4:15 am 04:15 Cloudy 36 2 36 2 100 100 S 10 17 29.72 1006 7 11.26538 0 0
4:35 am 04:35 Cloudy 36 2 36 2 100 100 S 6 9 29.74 1007 10 16.0934 0 0
4:55 am 04:55 Cloudy 36 2 36 2 100 100 S 7 11 29.73 1007 10 16.0934 0 0
5:15 am 05:15 Cloudy 36 2 36 2 100 100 SSE 8 13 29.69 1005 7 11.26538 0.01 0.254
5:35 am 05:35 Cloudy 36 2 36 2 100 100 SE 13 20 29.64 1004 10 16.0934 0.01 0.254
5:55 am 05:55 Cloudy 36 2 36 2 100 100 Calm 29.7 1006 10 16.0934 0.01 0.254
6:15 am 06:15 Cloudy 36 2 36 2 100 100 Calm 29.7 1006 10 16.0934 0 0
6:35 am 06:35 Cloudy 36 2 36 2 100 100 Calm 29.71 1006 10 16.0934 0 0
6:55 am 06:55 Cloudy 36 2 36 2 100 100 Calm 29.7 1006 10 16.0934 0 0
7:15 am 07:15 Cloudy 36 2 36 2 100 100 Calm 29.71 1006 10 16.0934 0 0
7:35 am 07:35 Cloudy 36 2 36 2 100 100 Calm 29.71 1006 10 16.0934 0 0
7:55 am 07:55 Cloudy 36 2 36 2 100 100 SSE 5 7 29.69 1005 7 11.26538 0 0
8:15 am 08:15 Cloudy 36 2 36 2 100 100 SE 3 6 29.69 1005 7 11.26538 0 0
8:35 am 08:35 Cloudy 36 2 36 2 100 100 Calm 29.7 1006 5 8.0467 0 0
8:55 am 08:55 Cloudy 36 2 36 2 100 100 SSE 5 7 29.68 1005 5 8.0467 0 0
9:15 am 09:15 Cloudy 36 2 36 2 100 100 S 8 13 29.68 1005 5 8.0467 0 0
9:35 am 09:35 Cloudy 36 2 36 2 100 100 S 6 9 29.67 1005 3 4.82802 0 0
9:55 am 09:55 Cloudy 36 2 36 2 100 100 SW 6 9 29.69 1005 4 6.43736 0 0
10:15 am 10:15 Cloudy 36 2 36 2 100 100 S 7 11 29.66 1004 4 6.43736 0 0
10:35 am 10:35 Cloudy 36 2 36 2 100 100 S 12 19 29.64 1004 4 6.43736 0.01 0.254
10:55 am 10:55 Cloudy 36 2 36 2 100 100 S 9 15 29.64 1004 5 8.0467 0.02 0.508
11:15 am 11:15 Cloudy 37 3 37 3 100 100 SSW 7 11 29.63 1003 7 11.26538 0 0
11:35 am 11:35 Cloudy 37 3 37 3 100 100 SW 3 6 29.63 1003 5 8.0467 0.02 0.508
11:55 am 11:55 Cloudy 37 3 37 3 100 100 SW 5 7 29.62 1003 4 6.43736 0.06 1.524
12:15 pm 12:15 Cloudy 37 3 37 3 100 100 Calm 29.6 1002 2.5 4.02335 0.05 1.27
12:35 pm 12:35 Cloudy 37 3 37 3 100 100 Calm 29.58 1002 2 3.21868 0.1 2.54
12:55 pm 12:55 Cloudy 37 3 37 3 100 100 Calm 29.56 1001 4 6.43736 0.12 3.048
1:15 pm 13:15 Cloudy 37 3 37 3 100 100 S 3 6 29.54 1000 7 11.26538 0.02 0.508
1:35 pm 13:35 Cloudy 37 3 37 3 100 100 Calm 29.53 1000 4 6.43736 0.06 1.524
1:55 pm 13:55 Cloudy 37 3 37 3 100 100 Calm 29.52 1000 4 6.43736 0.1 2.54
2:15 pm 14:15 Cloudy 37 3 37 3 100 100 Calm 29.52 1000 2.5 4.02335 0.04 1.016
2:35 pm 14:35 Cloudy 37 3 37 3 100 100 ESE 3 6 29.49 999 5 8.0467 0.07 1.778
2:55 pm 14:55 Cloudy 37 3 37 3 100 100 ESE 7 11 29.44 997 7 11.26538 0.08 2.032
3:15 pm 15:15 Cloudy 37 3 37 3 100 100 Calm 29.45 997 5 8.0467 0.02 0.508
3:35 pm 15:35 Cloudy 37 3 37 3 100 100 ENE 7 11 29.44 997 10 16.0934 0.02 0.508
3:55 pm 15:55 Cloudy 37 3 37 3 100 100 N 7 11 29.46 998 7 11.26538 0.03 0.762
4:15 pm 16:15 Cloudy 37 3 37 3 100 100 NNW 7 11 29.48 998 10 16.0934 0 0
4:35 pm 16:35 Cloudy 37 3 37 3 100 100 NNE 8 13 29.46 998 10 16.0934 0 0
4:55 pm 16:55 Cloudy 37 3 37 3 100 100 NNE 7 11 29.46 998 10 16.0934 0 0
5:15 pm 17:15 Cloudy 37 3 37 3 100 100 NNE 5 7 29.45 997 10 16.0934 0 0
5:35 pm 17:35 Cloudy 37 3 37 3 100 100 NNE 5 7 29.46 998 10 16.0934 0.01 0.254
5:55 pm 17:55 Cloudy 37 3 37 3 100 100 Calm 29.48 998 5 8.0467 0.01 0.254
6:15 pm 18:15 Cloudy 37 3 37 3 100 100 Calm 29.47 998 3 4.82802 0 0
6:35 pm 18:35 Cloudy 37 3 37 3 100 100 Calm 29.49 999 2.5 4.02335 0.01 0.254
6:55 pm 18:55 Cloudy 37 3 37 3 100 100 SE 3 6 29.48 998 3 4.82802 0.03 0.762
7:15 pm 19:15 Cloudy 37 3 37 3 100 100 SE 8 13 29.42 996 1 1.60934 0 0
7:35 pm 19:35 Cloudy 37 3 37 3 100 100 Calm 29.45 997 3 4.82802 0 0
7:55 pm 19:55 Cloudy 39 4 39 4 100 100 Calm 29.44 997 5 8.0467 0 0
8:15 pm 20:15 Cloudy 39 4 39 4 100 100 Calm 29.44 997 4 6.43736 0 0
8:35 pm 20:35 Cloudy 39 4 39 4 100 100 S 3 6 29.44 997 4 6.43736 0 0
8:55 pm 20:55 Cloudy 39 4 39 4 100 100 SSE 8 13 29.41 996 2.5 4.02335 0 0
9:15 pm 21:15 Cloudy 39 4 39 4 100 100 SW 3 6 29.44 997 1.75 2.816345 0 0
9:35 pm 21:35 Cloudy 39 4 39 4 100 100 SSW 8 13 29.43 996 1.5 2.41401 0 0
9:55 pm 21:55 Cloudy 39 4 39 4 100 100 Calm 29.43 996 1 1.60934 0 0
10:15 pm 22:15 Cloudy 41 5 41 5 100 100 SSE 3 6 29.41 996 1.25 2.011675 0.01 0.254
10:35 pm 22:35 Cloudy 41 5 41 5 100 100 SSE 10 17 29.39 995 1.75 2.816345 0.01 0.254
10:55 pm 22:55 Cloudy 41 5 41 5 100 100 SE 8 13 29.35 994 2 3.21868 0.02 0.508
11:15 pm 23:15 Cloudy 43 6 43 6 100 100 S 10 17 29.34 994 3 4.82802 0.02 0.508
11:35 pm 23:35 Cloudy 43 6 43 6 100 100 SSW 5 7 29.35 994 7 11.26538 0.02 0.508
11:55 pm 23:55 Cloudy 43 6 43 6 100 100 SSW 6 9 29.36 994 7 11.26538 0.02 0.508

Powered by AerisWeather